Location: Unspecified
(44.4377°N, 88.0525°W)
Time: 07:18:42
(UTC-05:00)

Cosmos 1674 - Visible Passes

Search period start: 24 March 2023 00:00
Search period end: 03 April 2023 00:00
Orbit: 476 x 496 km, 82.5° (Epoch: 24 March)

Date Brightness Start Highest point End Pass type
(mag) Time Alt. Az. Time Alt. Az. Time Alt. Az.
24 Mar 2.5 19:48:51 10° N 19:52:34 76° E 19:56:17 10° SSE visible
25 Mar 6.0 21:01:35 10° WNW 21:03:01 12° W 21:04:28 10° WSW visible
26 Mar 5.6 20:36:23 10° NW 20:38:58 18° W 20:41:35 10° SW visible
27 Mar 5.0 20:11:40 10° NNW 20:14:52 28° W 20:18:04 10° SSW visible
28 Mar 4.0 19:47:08 10° NNW 19:50:41 43° W 19:54:14 10° SSW visible
31 Mar 6.1 20:10:40 10° WNW 20:12:24 13° W 20:14:09 10° WSW visible
01 Apr 5.8 19:45:26 10° NW 19:48:10 20° W 19:50:55 10° SW visible
